Logan, UT

5:33 PM MST on December 10, 2019 (GMT -0700)
Logan-Cache

Weather History for KLGU - August, 2019

Change the Weather History Date:

Tuesday, August 20, 2019

  Actual Average Record
Temperature  
Mean Temperature 72 °F -  
Max Temperature 93 °F 85 °F 96 °F (1960)
Min Temperature 51 °F 51 °F 36 °F (1980)
Cooling Degree Days 7    
Growing Degree Days 22 (Base 50)    
Moisture  
Dew Point 37 °F    
Average Humidity 36    
Maximum Humidity 71    
Minimum Humidity 10    
Precipitation  
Precipitation 0.00 in - - ()
Sea Level Pressure  
Sea Level Pressure 29.92 in    
Wind  
Wind Speed 3 mph ()    
Max Wind Speed 7 mph    
Max Gust Speed -    
Visibility 10.0 miles    
Events      
Averages and records for this station are not official NWS values.
T = Trace of Precipitation, MM = Missing Value Source: Averaged Metar Reports

Daily Weather History Graph

Daily Weather History Graph

Search for Another Location

Airport or City:

Astronomy

Aug. 20, 2019 Rise Set
Actual Time 6:40 AM MDT 8:20 PM MDT
Civil Twilight 6:11 AM MDT 8:49 PM MDT
Nautical Twilight 5:35 AM MDT 9:25 PM MDT
Astronomical Twilight 4:57 AM MDT 10:03 PM MDT
Moon 11:05 PM MDT (8/20) 11:26 AM MDT (8/20)
Length of Visible Light 14h 38m
Length of Day
13h 39m
Waning Gibbous, 77% of the Moon is Illuminated
Aug 20
Waning Gibbous
Aug 23
Last Quarter
Aug 30
New
Sep 5
First Quarter
Sep 13
Full

Hourly Weather History & Observations

Time (MDT) Temp. Dew Point Humidity Pressure Visibility Wind Dir Wind Speed Gust Speed Precip Events Conditions
12:51 AM 57.9 °F 43.0 °F 58% 29.88 in 10.0 mi NNE 3.5 mph - N/A   Clear
1:51 AM 64.0 °F 39.9 °F 41% 29.87 in 10.0 mi North 3.5 mph - N/A   Clear
2:51 AM 55.0 °F 42.1 °F 62% 29.91 in 10.0 mi NNE 3.5 mph - N/A   Clear
3:51 AM 54.0 °F 42.1 °F 64% 29.92 in 10.0 mi Calm Calm - N/A   Clear
4:51 AM 55.0 °F 43.0 °F 64% 29.91 in 10.0 mi Calm Calm - N/A   Clear
5:51 AM 51.1 °F 41.0 °F 68% 29.94 in 10.0 mi East 3.5 mph - N/A   Clear
6:51 AM 51.1 °F 41.0 °F 68% 29.96 in 10.0 mi Calm Calm - N/A   Clear
7:51 AM 52.0 °F 43.0 °F 71% 29.99 in 10.0 mi Calm Calm - N/A   Clear
8:51 AM 62.1 °F 43.0 °F 50% 29.99 in 10.0 mi Calm Calm - N/A   Clear
9:51 AM 69.1 °F 37.0 °F 31% 29.99 in 10.0 mi North 5.8 mph - N/A   Clear
10:51 AM 75.0 °F 37.9 °F 26% 29.99 in 10.0 mi Calm Calm - N/A   Clear
11:51 AM 80.1 °F 37.9 °F 22% 29.96 in 10.0 mi NNW 4.6 mph - N/A   Clear
12:51 PM 84.9 °F 35.1 °F 17% 29.95 in 10.0 mi NNW 5.8 mph - N/A   Clear
1:51 PM 89.1 °F 28.0 °F 11% 29.91 in 10.0 mi Variable 3.5 mph - N/A   Clear
2:51 PM 91.0 °F 30.9 °F 12% 29.91 in 10.0 mi NNW 4.6 mph - N/A   Clear
3:51 PM 93.0 °F 30.0 °F 11% 29.88 in 10.0 mi ENE 4.6 mph - N/A   Clear
4:51 PM 91.9 °F 28.9 °F 11% 29.87 in 10.0 mi Calm Calm - N/A   Clear
5:51 PM 91.0 °F 30.0 °F 11% 29.88 in 10.0 mi SSE 5.8 mph - N/A   Clear
6:51 PM 91.0 °F 27.0 °F 10% 29.87 in 10.0 mi WNW 4.6 mph - N/A   Clear
7:51 PM 88.0 °F 37.9 °F 17% 29.88 in 10.0 mi NNE 4.6 mph - N/A   Clear
8:51 PM 79.0 °F 37.0 °F 22% 29.87 in 10.0 mi East 6.9 mph - N/A   Clear
9:51 PM 73.9 °F 35.1 °F 24% 29.88 in 10.0 mi South 5.8 mph - N/A   Clear
10:51 PM 60.1 °F 44.1 °F 55% 29.90 in 10.0 mi North 3.5 mph - N/A   Clear
11:51 PM 63.0 °F 43.0 °F 48% 29.89 in 10.0 mi Calm Calm - N/A   Clear